This is the latest recevied weather packets stored in our database for station/object LU2DKV-10. If no packets are shown the sender has not sent any weather packets the latest 10 day(s).
| Time | Temp. | Humidity | Pressure | Rain* | Wind** | Luminosity | Snow |
|---|---|---|---|---|---|---|---|
| 1777860951 | 14.44° C | 55% | 1014 hPa | - | - | 0 W/m² | - |
| 1777859129 | 14.44° C | 55% | 1014 hPa | - | - | 0 W/m² | - |
| 1777857307 | 14.44° C | 57% | 1014 hPa | - | - | 0 W/m² | - |
| 1777855485 | 14.44° C | 55% | 1015 hPa | - | - | 0 W/m² | - |
| 1777853663 | 14.44° C | 54% | 1015 hPa | - | - | 0 W/m² | - |
| 1777851841 | 14.44° C | 51% | 1015 hPa | - | - | 0 W/m² | - |
| 1777850019 | 14.44° C | 50% | 1015 hPa | - | - | 0 W/m² | - |
| 1777848197 | 14.44° C | 51% | 1016 hPa | - | - | 0 W/m² | - |
| 1777846375 | 14.44° C | 51% | 1016 hPa | - | - | 0 W/m² | - |
| 1777844553 | 14.44° C | 48% | 1016 hPa | - | - | 0 W/m² | - |
| 1777842731 | 15° C | 45% | 1016 hPa | - | - | 0 W/m² | - |
| 1777840909 | 15.56° C | 42% | 1016 hPa | - | - | 0 W/m² | - |
| 1777839087 | 16.11° C | 41% | 1016 hPa | - | - | 0 W/m² | - |
| 1777837265 | 16.67° C | 51% | 1017 hPa | - | - | 0 W/m² | - |
| 1777835443 | 16.11° C | 51% | 1017 hPa | - | - | 0 W/m² | - |
| 1777833621 | 16.11° C | 49% | 1018 hPa | - | - | 0 W/m² | - |
| 1777831799 | 16.11° C | 49% | 1018 hPa | - | - | 0 W/m² | - |
| 1777829977 | 16.11° C | 57% | 1018 hPa | - | - | 0 W/m² | - |
| 1777828155 | 16.11° C | 51% | 1019 hPa | - | - | 0 W/m² | - |
| 1777826333 | 16.11° C | 54% | 1020 hPa | - | - | 0 W/m² | - |
| 1777824511 | 15.56° C | 59% | 1020 hPa | - | - | 0 W/m² | - |
| 1777822689 | 15° C | 50% | 1021 hPa | - | - | 0 W/m² | - |
| 1777820867 | 15° C | 49% | 1021 hPa | - | - | 0 W/m² | - |
| 1777819045 | 14.44° C | 50% | 1022 hPa | - | - | 0 W/m² | - |
| 1777817223 | 14.44° C | 48% | 1023 hPa | - | - | 0 W/m² | - |
* Rain since midnight (hover to see other rain measurements)
** Current wind speed in m/s (hover to see current wind gust speed)